Location: Rounton
(54.4000°N, 1.3500°W)
Time: 11:21:21
(UTC+01:00)

Envisat - Visible Passes

Search period start: 24 September 2023 00:00
Search period end: 04 October 2023 00:00
Orbit: 763 x 764 km, 98.2° (Epoch: 23 September)

Date Brightness Start Highest point End Pass type
(mag) Time Alt. Az. Time Alt. Az. Time Alt. Az.
24 Sep 4.1 04:24:16 10° NNE 04:29:07 42° E 04:33:56 10° S visible
24 Sep 3.6 06:03:25 10° N 06:08:05 37° WNW 06:12:43 10° SW visible
25 Sep 5.1 03:47:34 10° NE 03:51:35 23° E 03:55:34 10° SE visible
25 Sep 3.0 05:25:59 10° NNE 05:31:03 68° WNW 05:36:05 10° SSW visible
26 Sep 5.7 03:11:55 10° ENE 03:13:49 12° E 03:15:43 10° ESE visible
26 Sep 3.3 04:48:45 10° NNE 04:53:50 66° ESE 04:58:52 10° S visible
27 Sep 4.5 04:11:46 10° NNE 04:16:25 34° E 04:21:02 10° SSE visible
27 Sep 3.4 05:50:43 10° N 05:55:33 45° WNW 06:00:22 10° SW visible
28 Sep 5.4 03:35:16 10° NE 03:38:48 19° E 03:42:20 10° SE visible
28 Sep 2.9 05:13:20 10° NNE 05:18:27 83° WNW 05:23:33 10° SSW visible
29 Sep 3.7 04:36:11 10° NNE 04:41:11 53° E 04:46:08 10° S visible
29 Sep 3.8 06:15:32 10° N 06:19:58 31° WNW 06:24:24 10° WSW visible
30 Sep 4.8 03:59:19 10° NNE 04:03:42 28° E 04:08:03 10° SSE visible
30 Sep 3.1 05:38:01 10° N 05:43:00 55° WNW 05:47:57 10° SW visible
01 Oct 5.6 03:23:06 10° NE 03:26:01 15° E 03:28:54 10° ESE visible
01 Oct 3.0 05:00:43 10° NNE 05:05:50 81° ESE 05:10:56 10° SSW visible
02 Oct 4.1 04:23:39 10° NNE 04:28:30 43° E 04:33:10 11° SSE visible
02 Oct 3.6 06:02:48 10° N 06:07:27 37° WNW 06:12:06 10° SW visible
03 Oct 5.1 03:46:55 10° NE 03:50:57 23° E 03:54:57 10° SE visible
03 Oct 2.9 05:25:21 10° NNE 05:30:25 68° WNW 05:35:28 10° SSW visible
